This demonstration page uses our WeatherBlox Daily Observations layout. Learn more.

Left ArrowRight Arrow

36.17497, -115.13722

Hourly Observations for May 11, 2016

Temp ( °F °C ) Dew Point ( °F °C ) Humidity (%) Winds ( mph kmh ) Pressure ( in mb ) Visibility ( mi km ) Precip ( " mm )
12:53 am 00:53 Clear 73 22.8 46 7.8 38 38 N 9 15 29.91 1013 10 16 N/A
1:53 am 01:53 Partly Cloudy 75 23.9 32 undefined 21 21 N 9 15 29.92 1013 10 16 N/A
2:53 am 02:53 Mostly Clear 73 22.8 23 -5 15 15 N 15 24 29.96 1014 10 16 N/A
3:53 am 03:53 Partly Cloudy 72 22.2 21 -6.1 15 15 NNW 18 30 29.98 1015 10 16 N/A
4:53 am 04:53 Clear 70 21.1 22 -5.6 16 16 N 17 28 30.01 1016 10 16 N/A
5:53 am 05:53 Sunny 69 20.6 23 -5 17 17 N 18 30 30.03 1017 10 16 N/A
6:53 am 06:53 Sunny 70 21.1 23 -5 17 17 N 12 19 30.06 1018 10 16 N/A
7:53 am 07:53 Sunny 71 21.7 24 -4.4 17 17 NNW 15 24 30.08 1019 10 16 N/A
8:53 am 08:53 Sunny 73 22.8 25 -3.9 17 17 N 13 20 30.10 1019 10 16 N/A
9:53 am 09:53 Sunny 75 23.9 25 -3.9 15 15 N N/A 30.10 1019 10 16 N/A
10:53 am 10:53 Sunny 77 25 26 -3.3 15 15 VRB 6 9 30.09 1019 10 16 N/A
11:53 am 11:53 Sunny 80 26.7 23 -5 12 12 NNE 7 11 30.09 1019 10 16 N/A
12:53 pm 12:53 Sunny 80 26.7 24 -4.4 13 13 undefined N/A 30.07 1018 10 16 N/A
1:53 pm 13:53 Sunny 82 27.8 25 -3.9 12 12 undefined N/A 30.05 1018 10 16 N/A
2:53 pm 14:53 Sunny 82 27.8 25 -3.9 12 12 VRB 5 7 30.03 1017 10 16 N/A
3:53 pm 15:53 Sunny 84 28.9 25 -3.9 11 11 VRB 7 11 30.01 1016 10 16 N/A
4:53 pm 16:53 Sunny 84 28.9 26 -3.3 12 12 ENE 8 13 30.01 1016 10 16 N/A
5:53 pm 17:53 Sunny 83 28.3 26 -3.3 12 12 E 7 11 30.00 1016 10 16 N/A
6:53 pm 18:53 Sunny 83 28.3 27 -2.8 13 13 ESE 7 11 30.00 1016 10 16 N/A
7:53 pm 19:53 Clear 80 26.7 28 -2.2 15 15 E 6 9 30.02 1017 10 16 N/A
8:53 pm 20:53 Clear 80 26.7 29 -1.7 15 15 E 5 7 30.03 1017 10 16 N/A
9:53 pm 21:53 Clear 77 25 33 0.6 20 20 N 3 6 30.05 1018 10 16 N/A
10:53 pm 22:53 Clear 73 22.8 36 2.2 26 26 NW 6 9 30.06 1018 10 16 N/A
11:53 pm 23:53 Clear 72 22.2 36 2.2 27 27 NW 7 11 30.05 1018 10 16 N/A

Powered by AerisWeather